Location: Moscow
(55.7500°N, 37.5830°E)
Time: 19:28:42
(UTC+03:00)

Tiros 1 - Pass Details

Date: 07 December 2021
Orbit: 629 x 664 km, 48.4° (Epoch: 19 January)

Event Time Altitude Azimuth Distance (km) Brightness Sun altitude
Rises 18:05:18 0° 213° (SSW) 2,913 11.3 -16.4°
Reaches altitude 10° 18:08:11 10° 195° (SSW) 2,012 10.1 -16.8°
Maximum altitude 18:11:21 18° 151° (SSE) 1,544 8.9 -17.2°
Enters shadow 18:12:42 16° 130° (SE) 1,644 8.9 -17.4°
